Hourly Data Report for June 14, 2018

OTTAWA INTL A
ONTARIO
Current Station Operator: NAVCAN

45°19'00.000" N
75°40'00.000" W
114.90 m
6106001
71628
YOW

Download Data

Hourly Data (June 2018)
Hourly Data Report for June 14, 2018
TIME
LST
Temp Definition
°C
Dew Point Definition
°C
Rel Hum Definition
%
Precip. Amount Definition
mm

Wind Dir Definition
10's deg

Wind Spd Definition
km/h
Visibility Definition
km
Stn Press Definition
kPa
Hmdx Definition


Wind Chill Definition


Weather Definition


00:00 14.8 12.8 88   22 16 24.1 98.73     LegendNANA
01:00 14.7 13.2 90   22 19 12.9 98.73     Rain
02:00 15.3 13.5 89   24 24 16.1 98.74     LegendNANA
03:00 15.6 13.1 85   26 29 24.1 98.78     LegendNANA
04:00 15.2 11.9 80   29 27 24.1 98.83     Cloudy
05:00 14.5 11.4 81   28 21 24.1 98.86     LegendNANA
06:00 14.3 10.9 80   28 26 24.1 98.93     LegendNANA
07:00 13.9 10.8 82   28 26 24.1 99.02     Cloudy
08:00 13.8 11.1 84   27 25 24.1 99.10     Rain
09:00 13.4 12.2 92   28 24 6.4 99.17     Rain, Fog
10:00 14.2 12.8 91   28 24 24.1 99.25     Rain
11:00 15.1 12.0 81   29 28 24.1 99.31     LegendNANA
12:00 14.9 11.8 81   28 30 24.1 99.38     LegendNANA
13:00 15.3 12.3 82   29 25 24.1 99.42     Cloudy
14:00 15.4 12.5 83   29 27 24.1 99.49     LegendNANA
15:00 16.5 12.8 79   31 31 24.1 99.55     LegendNANA
16:00 16.1 12.7 80   29 22 24.1 99.62     Cloudy
17:00 15.1 13.2 88   30 21 16.1 99.67     Rain
18:00 14.6 13.5 93   31 20 11.3 99.74     Rain
19:00 14.2 13.2 93   32 18 24.1 99.82     Rain
20:00 13.6 12.6 94   32 16 24.1 99.86     Rain
21:00 13.4 12.4 94   32 16 24.1 99.93     Rain
22:00 13.2 12.2 94   31 15 24.1 99.99     Cloudy
23:00 12.9 11.9 94   32 14 24.1 100.02     LegendNANA

Notes on Data Quality.

Legend

  • E = Estimated
  • M = Missing
  • NA = Not Available*
  • [empty] = Indicates an unobserved value
Date modified: